Orbital Elements at Epoch 2459000.5 (2020-May-31.0) TDB
Reference: JPL 15 (heliocentric ecliptic J2000)
Element | Value | Uncertainty (1-sigma) | Units |
e | .2123115748176652 | 5.1131e-08 | |
a | 2.68851331754071 | 1.5202e-08 | au |
q | 2.117710821175376 | 1.424e-07 | au |
i | 4.016691486975946 | 5.0544e-06 | deg |
node | 25.93954470579827 | 6.9047e-05 | deg |
peri | 304.2615204708707 | 6.9698e-05 | deg |
M | 131.6909068945889 | 1.0383e-05 | deg |
tp | 2458411.493614976795 (2018-Oct-19.99361498) | 4.4852e-05 | TDB |
period | 1610.151403832928 4.41 | 1.3657e-05 3.739e-08 | d yr |
n | .2235814589503996 | 1.8964e-09 | deg/d |
Q | 3.259315813906044 | 1.843e-08 | au |
|
| | Orbit Determination Parameters
Additional Information
|